一网星座-0657星 (ONEWEB-0657)

导读

ONEWEB-0657是英国OneWeb公司的低轨宽带互联网卫星,于2023年3月9日由SpaceX猎鹰9号火箭,从佛罗里达州卡纳维拉尔角航天站发射入轨。该卫星属于OneWeb全球低轨卫星星座的组网卫星,旨在为全球提供高速低延时卫星互联网服务,本次任务是OneWeb第17次发射,将在轨卫星数量提升至582颗,推动OneWeb星座组网进程。

基本信息
目录编号:
55818
目录名称:
ONEWEB-0657
国际标识:
2023-029Y
轨道中心:
EARTH
卫星名称:
一网星座-0657星
卫星全名:
一网星座-0657星 (ONEWEB-0657)
卫星状态:
在轨 (已飞行1283 天)
发射日期:
2023-03-09 UTC
国别 :
英国 (GB)
星等 :
--
该卫星已列入 空间交会检测服务 Space Conjunction Data Service (SCDS) ,当前飞行风险评估等级: 无高风险
轨道信息
数据来源 国际轨道数据 AOE轨道数据
星历时间 2026-09-11T20:05:57+0800
15小时前
查看轨道信息
2026-09-10T23:00:00+0800
1天前
查看轨道信息
半长轴 7563.908km 7563.905km
偏心率 0.0001663 0.0001539
轨道倾角 87.912° 87.912°
近地点辐角 116.393° 115.019°
升交点赤经 287.779° 287.954°
平近点角 243.737° 30.725°
近地点 1184.513km 1184.603km
远地点 1187.029km 1186.933km
周期 109.114分钟 109.114分钟
每日圈数 13.19725 13.197257
详细信息
平衡模式:
三轴稳定
覆盖范围:
全球
运营商:
一网卫星公司
运营商所在国:
英国
制造商(研发单位):
一网卫星公司
制造商所在国:
英国
使用方式:
暂无
卫星简介
OneWeb卫星网络由648颗重约125公斤的微型卫星组成,运行在1200公里的轨道上。 每颗卫星都能够提供至少每秒8千兆位的吞吐量,以使用其高吞吐量的Ku频段有效载荷为家庭和移动平台提供互联网接入。该卫星仍在工作。
2D轨道图
3D轨道图
轨道高度分析图
轨道倾角分析图
轨道综合分析图
查看轨道综合分析图
与全量物体交会距离演化趋势
与全量物体交会风险概率演化趋势